Regional Weather Roundup
Issued by NWS

Home | Current Version | Previous Version | Text Only | Print | Product List | Glossary On
Versions: 1 2 3 4 5 6 7 8 9 10 11 12 13 14 15 16 17 18 19 20 21 22 23 24 25 26 27 28 29 30 31 32 33 34 35 36 37 38 39 40 41 42 43 44 45 46 47 48 49 50
675
ASUS43 KLMK 172102
RWRKY
KENTUCKY REGIONAL WEATHER ROUNDUP
NATIONAL WEATHER SERVICE LOUISVILLE KY
500 PM EDT TUE OCT 17 2017

NOTE "FAIR" INDICATES FEW OR NO CLOUDS BELOW 12,000 FEET
WITH NO SIGNIFICANT WEATHER AND/OR OBSTRUCTIONS TO VISIBILITY.

KYZ001>023-026-027-061>063-070>075-172200-
WESTERN AND SOUTH CENTRAL KENTUCKY

CITY           SKY/WX    TMP DP  RH WIND       PRES   REMARKS
PADUCAH        MOSUNNY   69  40  34 SW5       30.24F
HENDERSON      SUNNY     69  41  36 S6        30.26F
OWENSBORO      SUNNY     66  42  41 CALM      30.27F
HOPKINSVILLE   SUNNY     67  37  33 CALM      30.25F
BOWLING GREEN  CLOUDY    68  43  40 SE3       30.27F
GLASGOW        NOT AVBL
$$

KYZ024-025-028>034-038-045-046-053-172200-
NORTH CENTRAL KENTUCKY

CITY           SKY/WX    TMP DP  RH WIND       PRES   REMARKS
LOUISVILLE/SDF MOSUNNY   66  38  35 VRB6      30.27F
LOUISVILLE/LOU SUNNY     65  42  43 SW3       30.28F
FORT KNOX      SUNNY     63  43  48 S5        30.26F
$$

KYZ035>037-039>044-047>052-055>060-089>105-172200-
NORTHEAST KENTUCKY

CITY           SKY/WX    TMP DP  RH WIND       PRES   REMARKS
LEXINGTON      SUNNY     64  41  42 S6        30.28F
COVINGTON      SUNNY     65  40  39 VRB5      30.27S
FRANKFORT      SUNNY     64  38  38 VRB3      30.27S
$$

KYZ054-064>069-076>088-106>120-172200-
SOUTHEAST KENTUCKY

CITY           SKY/WX    TMP DP  RH WIND       PRES   REMARKS
JACKSON        SUNNY     64  38  38 CALM      30.28F
LONDON         SUNNY     64  36  35 CALM      30.28F
SOMERSET       NOT AVBL
MIDDLESBORO    SUNNY     65  38  36 CALM      30.28F
MONTICELLO     CLEAR     65  40  39 N8        30.29F
$$





USA.gov is the U.S. government's official web portal to all federal, state and local government web resources and services.